Weather History for Alexandria, MN

Change the Weather History Date:

Wednesday, September 18, 2013

  Actual Average Record
Temperature  
Mean Temperature 66 °F -  
Max Temperature 75 °F 68 °F 89 °F (1998)
Min Temperature 57 °F 48 °F 35 °F (1959)
Cooling Degree Days 1    
Growing Degree Days 16 (Base 50)    
Moisture  
Dew Point 63 °F    
Average Humidity 92    
Maximum Humidity 100    
Minimum Humidity 73    
Precipitation  
Precipitation 0.01 in - - ()
Sea Level Pressure  
Sea Level Pressure 29.76 in    
Wind  
Wind Speed 10 mph (SE)    
Max Wind Speed 20 mph    
Max Gust Speed 25 mph    
Visibility 3 miles    
Events Fog    
Averages and records for this station are not official NWS values.
T = Trace of Precipitation, MM = Missing Value Source: NWS Daily Summary

Daily Weather History Graph

Daily Weather History Graph

Search for Another Location

Airport:

Trip Planner

Search our weather history database for the weather conditions in past years. The results will help you decide how hot, cold, wet, or windy it might be!

Date:

Astronomy

Sep. 18, 2013 Rise Set
Actual Time 7:03 AM CDT 7:26 PM CDT
Civil Twilight 6:34 AM CDT 7:56 PM CDT
Nautical Twilight 5:58 AM CDT 8:31 PM CDT
Astronomical Twilight 5:22 AM CDT 9:07 PM CDT
Moon 6:49 PM CDT (9/18) 6:06 AM CDT (9/18)
Length of Visible Light 13h 22m
Length of Day
12h 22m
Waxing Gibbous, 99% of the Moon is Illuminated
Sep 18
Waxing Gibbous
Sep 19
Full
Sep 26
Last Quarter
Oct 4
New
Oct 11
First Quarter

Hourly Weather History & Observations

Time (CDT) Temp. Dew Point Humidity Pressure Visibility Wind Dir Wind Speed Gust Speed Precip Events Conditions
12:00 AM 57.2 °F 55.4 °F 94% 29.90 in 2.0 mi SSE 11.5 mph - N/A   Overcast
12:08 AM 57.2 °F 55.4 °F 94% 29.89 in 1.2 mi SE 11.5 mph - N/A   Overcast
12:53 AM 57.0 °F 55.9 °F 96% 29.89 in 1.0 mi SSE 11.5 mph - N/A   Mist
1:24 AM 57.2 °F 57.2 °F 100% 29.87 in 0.8 mi SSE 9.2 mph - N/A   Mist
1:49 AM 57.2 °F 57.2 °F 100% 29.87 in 0.5 mi SSE 10.4 mph - N/A Fog Fog
1:53 AM 57.0 °F 57.0 °F 100% 29.87 in 0.5 mi SE 10.4 mph - N/A Fog Fog
2:53 AM 57.9 °F 57.0 °F 97% 29.85 in 0.5 mi SE 9.2 mph - N/A Fog Fog
3:53 AM 59.0 °F 57.9 °F 96% 29.83 in 0.5 mi SSE 9.2 mph - N/A Fog Fog
4:16 AM 59.0 °F 59.0 °F 100% 29.82 in 0.8 mi SSE 8.1 mph - N/A   Mist
4:30 AM 59.0 °F 59.0 °F 100% 29.81 in 0.5 mi SE 5.8 mph - N/A Fog Fog
4:53 AM 59.0 °F 59.0 °F 100% 29.81 in 0.5 mi ESE 6.9 mph - N/A Fog Fog
5:53 AM 60.1 °F 59.0 °F 96% 29.79 in 0.5 mi SE 6.9 mph - N/A Fog Fog
6:41 AM 60.8 °F 59.0 °F 94% 29.77 in 0.8 mi SE 8.1 mph - N/A   Mist
6:53 AM 60.1 °F 59.0 °F 96% 29.78 in 0.8 mi SE 10.4 mph - N/A   Mist
7:40 AM 60.8 °F 60.8 °F 100% 29.79 in 0.5 mi SE 9.2 mph - N/A Fog Fog
7:53 AM 61.0 °F 60.1 °F 97% 29.79 in 0.2 mi SE 8.1 mph - N/A Fog Fog
8:53 AM 61.0 °F 61.0 °F 100% 29.79 in 0.5 mi SE 9.2 mph - 0.01 in Fog Fog
9:08 AM 62.6 °F 60.8 °F 94% 29.78 in 0.8 mi SE 10.4 mph - N/A   Mist
9:29 AM 62.6 °F 60.8 °F 94% 29.78 in 1.2 mi SE 10.4 mph - N/A   Overcast
9:43 AM 62.6 °F 62.6 °F 100% 29.77 in 1.5 mi SE 11.5 mph - N/A   Overcast
9:53 AM 63.0 °F 62.1 °F 97% 29.78 in 1.8 mi SE 10.4 mph - N/A   Overcast
10:53 AM 64.0 °F 64.0 °F 100% 29.77 in 2.0 mi SE 8.1 mph - N/A   Overcast
11:19 AM 64.4 °F 64.4 °F 100% 29.76 in 1.8 mi SE 8.1 mph - N/A   Overcast
11:51 AM 66.2 °F 66.2 °F 100% 29.75 in 1.2 mi SE 8.1 mph - N/A   Overcast
11:53 AM 66.0 °F 66.0 °F 100% 29.75 in 1.2 mi SE 9.2 mph - N/A   Overcast
12:02 PM 66.2 °F 66.2 °F 100% 29.74 in 1.5 mi SE 9.2 mph - N/A   Overcast
12:24 PM 68.0 °F 66.2 °F 94% 29.74 in 2.0 mi SE 9.2 mph - N/A   Overcast
12:51 PM 69.8 °F 66.2 °F 88% 29.72 in 3.0 mi SE 10.4 mph - N/A   Overcast
12:53 PM 69.1 °F 66.9 °F 93% 29.73 in 3.0 mi SE 9.2 mph - N/A   Overcast
1:31 PM 71.6 °F 68.0 °F 88% 29.71 in 5.0 mi SE 13.8 mph 20.7 mph N/A   Overcast
1:53 PM 72.0 °F 66.9 °F 84% 29.70 in 5.0 mi SSE 15.0 mph - N/A   Haze
2:53 PM 73.0 °F 66.9 °F 81% 29.68 in 6.0 mi SSE 19.6 mph - N/A   Haze
3:53 PM 73.9 °F 66.0 °F 76% 29.68 in 8.0 mi SE 19.6 mph - N/A   Mostly Cloudy
4:30 PM 75.2 °F 66.2 °F 73% 29.67 in 8.0 mi SSE 17.3 mph 24.2 mph N/A   Mostly Cloudy
4:37 PM 75.2 °F 66.2 °F 73% 29.67 in 8.0 mi SSE 15.0 mph 25.3 mph N/A   Partly Cloudy
4:53 PM 75.9 °F 66.9 °F 74% 29.67 in 9.0 mi SE 13.8 mph - N/A   Mostly Cloudy
5:09 PM 75.2 °F 66.2 °F 73% 29.67 in 9.0 mi SSE 15.0 mph - N/A   Scattered Clouds
5:53 PM 75.0 °F 66.9 °F 76% 29.67 in 9.0 mi SSE 12.7 mph - N/A   Clear
6:53 PM 73.9 °F 66.9 °F 79% 29.65 in 8.0 mi SE 9.2 mph - N/A   Clear
7:53 PM 72.0 °F 66.9 °F 84% 29.65 in 8.0 mi ESE 8.1 mph - N/A   Clear
8:53 PM 70.0 °F 66.9 °F 90% 29.68 in 7.0 mi ESE 8.1 mph - N/A   Clear
9:53 PM 70.0 °F 66.9 °F 90% 29.66 in 6.0 mi SE 8.1 mph - N/A   Clear
10:53 PM 70.0 °F 66.9 °F 90% 29.68 in 5.0 mi SE 6.9 mph - N/A   Clear
11:53 PM 70.0 °F 68.0 °F 93% 29.65 in 6.0 mi SE 9.2 mph - N/A   Clear